Location: Newark
(37.8333°N, 119.5000°W)
Time: 16:02:39
(UTC+00:00)

Tiros 1 despin weight - Pass Details

Date: 29 August 2019
Orbit: 595 x 642 km, 48.2° (Epoch: 15 September)

Event Time Altitude Azimuth Distance (km) Brightness Sun altitude
Rises 05:12:55 0° 250° (WSW) 2,820 ? -28.8°
Reaches altitude 10° 05:15:15 10° 255° (WSW) 1,921 ? -29.2°
Enters shadow 05:17:38 29° 270° (W) 1,085 ? -29.5°
